Location: Campestrin
(46.4667°N, 11.7167°E)
Time: 04:15:39
(UTC+00:00)

USA 229 DEB - Pass Details

Date: 18 April 2021
Orbit: 960 x 1252 km, 63.4° (Epoch: 23 April)

Event Time Altitude Azimuth Distance (km) Brightness Sun altitude
Rises 21:34:23 0° 320° (NW) 3,931 7.8 -28.3°
Reaches altitude 10° 21:37:05 10° 325° (NW) 3,012 7.0 -28.6°
Maximum altitude 21:44:12 57° 43° (NE) 1,379 4.2 -29.1°
Enters shadow 21:46:08 45° 90° (E) 1,575 4.3 -29.2°
